Time,TemperatureF,DewpointF,PressureIn,WindDirection,WindDirectionDegrees,WindSpeedMPH,WindSpeedGustMPH,Humidity,HourlyPrecipIn,Conditions,Clouds,dailyrainin,SoftwareType,DateUTC
2013-04-02 00:02:00,45.0,37.0,-100.00,SW,225,3.0,5.0,75,-99.99,,,-99.99,,2013-04-02 07:02:00,
2013-04-02 00:12:00,45.0,37.0,-100.00,SW,225,3.0,5.0,75,-99.99,,,-99.99,,2013-04-02 07:12:00,
2013-04-02 00:22:00,44.0,37.0,-100.00,SW,225,4.0,7.0,75,-99.99,,,-99.99,,2013-04-02 07:22:00,
2013-04-02 00:32:00,44.0,37.0,-100.00,SW,225,4.0,7.0,75,-99.99,,,-99.99,,2013-04-02 07:32:00,
2013-04-02 00:42:00,44.0,37.0,-100.00,SW,225,4.0,7.0,75,-99.99,,,-99.99,,2013-04-02 07:42:00,
2013-04-02 00:52:00,43.0,37.0,-100.00,SW,225,4.0,8.0,77,-99.99,,,-99.99,,2013-04-02 07:52:00,
2013-04-02 01:02:00,43.0,36.0,-100.00,South,180,4.0,6.0,77,-99.99,,,-99.99,,2013-04-02 08:02:00,
2013-04-02 01:12:00,43.0,36.0,-100.00,South,180,4.0,6.0,77,-99.99,,,-99.99,,2013-04-02 08:12:00,
2013-04-02 01:22:00,43.0,36.0,-100.00,South,180,4.0,7.0,78,-99.99,,,-99.99,,2013-04-02 08:22:00,
2013-04-02 01:32:00,42.0,36.0,-100.00,SW,225,5.0,7.0,79,-99.99,,,-99.99,,2013-04-02 08:32:00,
2013-04-02 01:42:00,42.0,36.0,-100.00,SW,225,5.0,7.0,79,-99.99,,,-99.99,,2013-04-02 08:42:00,
2013-04-02 01:52:00,42.0,37.0,-100.00,SW,225,6.0,8.0,80,-99.99,,,-99.99,,2013-04-02 08:52:00,
2013-04-02 02:02:00,42.0,36.0,-100.00,SW,225,6.0,9.0,80,-99.99,,,-99.99,,2013-04-02 09:02:00,
2013-04-02 02:12:00,42.0,36.0,-100.00,SW,225,6.0,9.0,80,-99.99,,,-99.99,,2013-04-02 09:12:00,
2013-04-02 02:22:00,42.0,36.0,-100.00,SW,225,6.0,9.0,81,-99.99,,,-99.99,,2013-04-02 09:22:00,
2013-04-02 02:32:00,41.0,36.0,-100.00,SW,225,5.0,8.0,81,-99.99,,,-99.99,,2013-04-02 09:32:00,
2013-04-02 02:42:00,41.0,36.0,-100.00,SW,225,5.0,8.0,81,-99.99,,,-99.99,,2013-04-02 09:42:00,
2013-04-02 02:52:00,41.0,36.0,-100.00,SW,225,6.0,8.0,81,-99.99,,,-99.99,,2013-04-02 09:52:00,
2013-04-02 03:03:00,41.0,36.0,-100.00,SW,225,6.0,9.0,81,-99.99,,,-99.99,,2013-04-02 10:03:00,
2013-04-02 03:13:00,41.0,36.0,-100.00,SW,225,6.0,9.0,81,-99.99,,,-99.99,,2013-04-02 10:13:00,
2013-04-02 03:23:00,41.0,36.0,-100.00,SW,225,7.0,9.0,81,-99.99,,,-99.99,,2013-04-02 10:23:00,
2013-04-02 03:33:00,41.0,36.0,-100.00,SW,225,7.0,9.0,82,-99.99,,,-99.99,,2013-04-02 10:33:00,
2013-04-02 03:42:00,41.0,36.0,-100.00,SW,225,7.0,9.0,82,-99.99,,,-99.99,,2013-04-02 10:42:00,
2013-04-02 03:52:00,41.0,36.0,-100.00,South,180,5.0,9.0,83,-99.99,,,-99.99,,2013-04-02 10:52:00,
2013-04-02 04:02:00,40.0,35.0,-100.00,SW,225,7.0,9.0,83,-99.99,,,-99.99,,2013-04-02 11:02:00,
2013-04-02 04:12:00,40.0,35.0,-100.00,SW,225,7.0,9.0,83,-99.99,,,-99.99,,2013-04-02 11:12:00,
2013-04-02 04:22:00,40.0,35.0,-100.00,SW,225,9.0,11.0,83,-99.99,,,-99.99,,2013-04-02 11:22:00,
2013-04-02 04:32:00,40.0,35.0,-100.00,SW,225,9.0,12.0,83,-99.99,,,-99.99,,2013-04-02 11:32:00,
2013-04-02 04:42:00,40.0,35.0,-100.00,SW,225,9.0,12.0,83,-99.99,,,-99.99,,2013-04-02 11:42:00,
2013-04-02 04:52:00,39.0,35.0,-100.00,SW,225,6.0,10.0,83,-99.99,,,-99.99,,2013-04-02 11:52:00,
2013-04-02 05:02:00,40.0,35.0,-100.00,SW,225,6.0,10.0,83,-99.99,,,-99.99,,2013-04-02 12:02:00,
2013-04-02 05:11:00,40.0,35.0,-100.00,SW,225,6.0,10.0,83,-99.99,,,-99.99,,2013-04-02 12:11:00,
2013-04-02 05:22:00,40.0,35.0,-100.00,SW,225,8.0,9.0,83,-99.99,,,-99.99,,2013-04-02 12:22:00,
2013-04-02 05:32:00,40.0,35.0,-100.00,SW,225,8.0,9.0,83,-99.99,,,-99.99,,2013-04-02 12:32:00,
2013-04-02 05:42:00,40.0,35.0,-100.00,SW,225,8.0,9.0,83,-99.99,,,-99.99,,2013-04-02 12:42:00,
2013-04-02 05:52:00,40.0,35.0,-100.00,SW,225,6.0,9.0,83,-99.99,,,-99.99,,2013-04-02 12:52:00,
2013-04-02 06:01:00,39.0,35.0,-100.00,SW,225,7.0,10.0,84,-99.99,,,-99.99,,2013-04-02 13:01:00,
2013-04-02 06:12:00,39.0,35.0,-100.00,SW,225,7.0,10.0,84,-99.99,,,-99.99,,2013-04-02 13:12:00,
2013-04-02 06:22:00,39.0,35.0,-100.00,SW,225,7.0,10.0,84,-99.99,,,-99.99,,2013-04-02 13:22:00,
2013-04-02 06:32:00,39.0,35.0,-100.00,SW,225,7.0,9.0,84,-99.99,,,-99.99,,2013-04-02 13:32:00,
2013-04-02 06:42:00,39.0,35.0,-100.00,SW,225,7.0,9.0,84,-99.99,,,-99.99,,2013-04-02 13:42:00,
2013-04-02 06:52:00,39.0,35.0,-100.00,SW,225,8.0,11.0,84,-99.99,,,-99.99,,2013-04-02 13:52:00,
2013-04-02 07:02:00,39.0,34.0,-100.00,SW,225,8.0,10.0,84,-99.99,,,-99.99,,2013-04-02 14:02:00,
2013-04-02 07:12:00,39.0,34.0,-100.00,SW,225,8.0,10.0,84,-99.99,,,-99.99,,2013-04-02 14:12:00,
2013-04-02 07:22:00,39.0,34.0,-100.00,SW,225,6.0,11.0,84,-99.99,,,-99.99,,2013-04-02 14:22:00,
2013-04-02 07:32:00,39.0,34.0,-100.00,SW,225,9.0,12.0,84,-99.99,,,-99.99,,2013-04-02 14:32:00,
2013-04-02 07:42:00,39.0,34.0,-100.00,SW,225,9.0,12.0,84,-99.99,,,-99.99,,2013-04-02 14:42:00,
2013-04-02 07:52:00,39.0,35.0,-100.00,SW,225,7.0,12.0,84,-99.99,,,-99.99,,2013-04-02 14:52:00,
2013-04-02 08:02:00,40.0,35.0,-100.00,SW,225,4.0,9.0,83,-99.99,,,-99.99,,2013-04-02 15:02:00,
2013-04-02 08:11:00,40.0,35.0,-100.00,SW,225,4.0,9.0,83,-99.99,,,-99.99,,2013-04-02 15:11:00,
2013-04-02 08:22:00,40.0,35.0,-100.00,SW,225,7.0,11.0,82,-99.99,,,-99.99,,2013-04-02 15:22:00,
2013-04-02 08:33:00,42.0,36.0,-100.00,South,180,8.0,11.0,80,-99.99,,,-99.99,,2013-04-02 15:33:00,
2013-04-02 08:42:00,42.0,36.0,-100.00,South,180,8.0,11.0,80,-99.99,,,-99.99,,2013-04-02 15:42:00,
2013-04-02 08:54:00,43.0,36.0,-100.00,SW,225,9.0,11.0,77,-99.99,,,-99.99,,2013-04-02 15:54:00,
2013-04-02 09:03:00,45.0,37.0,-100.00,SW,225,10.0,13.0,74,-99.99,,,-99.99,,2013-04-02 16:03:00,
2013-04-02 09:13:00,45.0,37.0,-100.00,SW,225,10.0,13.0,74,-99.99,,,-99.99,,2013-04-02 16:13:00,
2013-04-02 09:24:00,45.0,37.0,-100.00,SW,225,8.0,12.0,71,-99.99,,,-99.99,,2013-04-02 16:24:00,
2013-04-02 09:34:00,47.0,37.0,-100.00,SW,225,6.0,14.0,69,-99.99,,,-99.99,,2013-04-02 16:34:00,
2013-04-02 09:43:00,47.0,37.0,-100.00,SW,225,6.0,14.0,69,-99.99,,,-99.99,,2013-04-02 16:43:00,
2013-04-02 09:52:00,48.0,37.0,-100.00,SW,225,6.0,14.0,65,-99.99,,,-99.99,,2013-04-02 16:52:00,
2013-04-02 10:04:00,49.0,37.0,-100.00,SW,225,10.0,15.0,63,-99.99,,,-99.99,,2013-04-02 17:04:00,
2013-04-02 10:12:00,49.0,37.0,-100.00,SW,225,10.0,15.0,63,-99.99,,,-99.99,,2013-04-02 17:12:00,
2013-04-02 10:24:00,50.0,37.0,-100.00,SW,225,10.0,16.0,61,-99.99,,,-99.99,,2013-04-02 17:24:00,
2013-04-02 10:43:00,50.0,36.0,-100.00,SW,225,9.0,14.0,59,-99.99,,,-99.99,,2013-04-02 17:43:00,
2013-04-02 10:53:00,51.0,37.0,-100.00,South,180,2.0,14.0,57,-99.99,,,-99.99,,2013-04-02 17:53:00,
2013-04-02 11:03:00,52.0,35.0,-100.00,South,180,6.0,12.0,53,-99.99,,,-99.99,,2013-04-02 18:03:00,
2013-04-02 11:12:00,52.0,35.0,-100.00,South,180,6.0,12.0,53,-99.99,,,-99.99,,2013-04-02 18:12:00,
2013-04-02 11:23:00,53.0,36.0,-100.00,SW,225,2.0,11.0,51,-99.99,,,-99.99,,2013-04-02 18:23:00,
2013-04-02 11:33:00,54.0,35.0,-100.00,South,180,9.0,14.0,50,-99.99,,,-99.99,,2013-04-02 18:33:00,
2013-04-02 11:42:00,54.0,35.0,-100.00,South,180,9.0,14.0,50,-99.99,,,-99.99,,2013-04-02 18:42:00,
2013-04-02 11:53:00,54.0,35.0,-100.00,South,180,6.0,11.0,48,-99.99,,,-99.99,,2013-04-02 18:53:00,
2013-04-02 12:03:00,56.0,35.0,-100.00,South,180,7.0,9.0,45,-99.99,,,-99.99,,2013-04-02 19:03:00,
2013-04-02 12:12:00,56.0,35.0,-100.00,South,180,7.0,9.0,45,-99.99,,,-99.99,,2013-04-02 19:12:00,
2013-04-02 12:22:00,56.0,35.0,-100.00,South,180,4.0,8.0,45,-99.99,,,-99.99,,2013-04-02 19:22:00,
2013-04-02 12:33:00,58.0,35.0,-100.00,SE,135,3.0,10.0,43,-99.99,,,-99.99,,2013-04-02 19:33:00,
2013-04-02 12:43:00,58.0,35.0,-100.00,SE,135,3.0,10.0,43,-99.99,,,-99.99,,2013-04-02 19:43:00,
2013-04-02 12:53:00,58.0,35.0,-100.00,SW,225,5.0,9.0,43,-99.99,,,-99.99,,2013-04-02 19:53:00,
2013-04-02 13:03:00,59.0,36.0,-100.00,SW,225,8.0,10.0,41,-99.99,,,-99.99,,2013-04-02 20:03:00,
2013-04-02 13:12:00,59.0,36.0,-100.00,SW,225,8.0,10.0,41,-99.99,,,-99.99,,2013-04-02 20:12:00,
2013-04-02 13:22:00,60.0,36.0,-100.00,East,90,2.0,10.0,41,-99.99,,,-99.99,,2013-04-02 20:22:00,
2013-04-02 13:33:00,61.0,36.0,-100.00,South,180,4.0,10.0,39,-99.99,,,-99.99,,2013-04-02 20:33:00,
2013-04-02 13:43:00,61.0,36.0,-100.00,South,180,4.0,10.0,39,-99.99,,,-99.99,,2013-04-02 20:43:00,
2013-04-02 13:53:00,61.0,35.0,-100.00,South,180,3.0,9.0,38,-99.99,,,-99.99,,2013-04-02 20:53:00,
2013-04-02 14:03:00,62.0,36.0,-100.00,SW,225,3.0,8.0,38,-99.99,,,-99.99,,2013-04-02 21:03:00,
2013-04-02 14:12:00,62.0,36.0,-100.00,SW,225,3.0,8.0,38,-99.99,,,-99.99,,2013-04-02 21:12:00,
2013-04-02 14:22:00,62.0,36.0,-100.00,South,180,4.0,11.0,38,-99.99,,,-99.99,,2013-04-02 21:22:00,
2013-04-02 14:34:00,62.0,36.0,-100.00,South,180,4.0,11.0,38,-99.99,,,-99.99,,2013-04-02 21:34:00,
2013-04-02 14:43:00,62.0,36.0,-100.00,South,180,4.0,11.0,38,-99.99,,,-99.99,,2013-04-02 21:43:00,
2013-04-02 14:55:00,62.0,36.0,-100.00,SW,225,12.0,14.0,37,-99.99,,,-99.99,,2013-04-02 21:55:00,
2013-04-02 15:03:00,64.0,37.0,-100.00,West,270,5.0,10.0,37,-99.99,,,-99.99,,2013-04-02 22:03:00,
2013-04-02 15:13:00,64.0,37.0,-100.00,West,270,5.0,10.0,37,-99.99,,,-99.99,,2013-04-02 22:13:00,
2013-04-02 15:23:00,63.0,37.0,-100.00,NE,45,2.0,6.0,37,-99.99,,,-99.99,,2013-04-02 22:23:00,
2013-04-02 15:33:00,61.0,35.0,-100.00,West,270,8.0,12.0,38,-99.99,,,-99.99,,2013-04-02 22:33:00,
2013-04-02 15:43:00,61.0,35.0,-100.00,West,270,8.0,12.0,38,-99.99,,,-99.99,,2013-04-02 22:43:00,
2013-04-02 15:53:00,59.0,35.0,-100.00,NW,315,14.0,21.0,40,-99.99,,,-99.99,,2013-04-02 22:53:00,
2013-04-02 16:02:00,60.0,36.0,-100.00,NW,315,11.0,16.0,40,-99.99,,,-99.99,,2013-04-02 23:02:00,
2013-04-02 16:12:00,60.0,36.0,-100.00,NW,315,11.0,16.0,40,-99.99,,,-99.99,,2013-04-02 23:12:00,
2013-04-02 16:23:00,60.0,36.0,-100.00,NW,315,8.0,14.0,40,-99.99,,,-99.99,,2013-04-02 23:23:00,
2013-04-02 16:33:00,60.0,37.0,-100.00,NW,315,7.0,17.0,41,-99.99,,,-99.99,,2013-04-02 23:33:00,
2013-04-02 16:42:00,60.0,37.0,-100.00,NW,315,7.0,17.0,41,-99.99,,,-99.99,,2013-04-02 23:42:00,
2013-04-02 16:52:00,60.0,36.0,-100.00,NW,315,8.0,14.0,41,-99.99,,,-99.99,,2013-04-02 23:52:00,
2013-04-02 17:03:00,60.0,36.0,-100.00,NW,315,9.0,15.0,41,-99.99,,,-99.99,,2013-04-03 00:03:00,
2013-04-02 17:12:00,60.0,36.0,-100.00,NW,315,9.0,15.0,41,-99.99,,,-99.99,,2013-04-03 00:12:00,
2013-04-02 17:23:00,59.0,36.0,-100.00,North,0,8.0,14.0,42,-99.99,,,-99.99,,2013-04-03 00:23:00,
2013-04-02 17:32:00,59.0,37.0,-100.00,NW,315,4.0,12.0,43,-99.99,,,-99.99,,2013-04-03 00:32:00,
2013-04-02 17:44:00,59.0,37.0,-100.00,NW,315,4.0,12.0,43,-99.99,,,-99.99,,2013-04-03 00:44:00,
2013-04-02 17:53:00,59.0,36.0,-100.00,NW,315,9.0,14.0,43,-99.99,,,-99.99,,2013-04-03 00:53:00,
2013-04-02 18:03:00,59.0,36.0,-100.00,NW,315,8.0,12.0,43,-99.99,,,-99.99,,2013-04-03 01:03:00,
2013-04-02 18:12:00,59.0,36.0,-100.00,NW,315,8.0,12.0,43,-99.99,,,-99.99,,2013-04-03 01:12:00,
2013-04-02 18:22:00,59.0,36.0,-100.00,NW,315,9.0,13.0,43,-99.99,,,-99.99,,2013-04-03 01:22:00,
2013-04-02 18:33:00,58.0,36.0,-100.00,NW,315,7.0,11.0,44,-99.99,,,-99.99,,2013-04-03 01:33:00,
2013-04-02 18:42:00,58.0,36.0,-100.00,NW,315,7.0,11.0,44,-99.99,,,-99.99,,2013-04-03 01:42:00,
2013-04-02 19:03:00,57.0,35.0,-100.00,NW,315,10.0,15.0,44,-99.99,,,-99.99,,2013-04-03 02:03:00,
2013-04-02 19:12:00,57.0,35.0,-100.00,NW,315,10.0,15.0,44,-99.99,,,-99.99,,2013-04-03 02:12:00,
2013-04-02 19:23:00,56.0,35.0,-100.00,NW,315,8.0,13.0,45,-99.99,,,-99.99,,2013-04-03 02:23:00,
2013-04-02 19:33:00,55.0,34.0,-100.00,NW,315,6.0,11.0,45,-99.99,,,-99.99,,2013-04-03 02:33:00,
2013-04-02 19:43:00,55.0,34.0,-100.00,NW,315,6.0,11.0,45,-99.99,,,-99.99,,2013-04-03 02:43:00,
2013-04-02 19:52:00,54.0,34.0,-100.00,NW,315,6.0,11.0,47,-99.99,,,-99.99,,2013-04-03 02:52:00,
2013-04-02 20:04:00,54.0,34.0,-100.00,NW,315,5.0,6.0,48,-99.99,,,-99.99,,2013-04-03 03:04:00,
2013-04-02 20:13:00,54.0,34.0,-100.00,NW,315,5.0,6.0,48,-99.99,,,-99.99,,2013-04-03 03:13:00,
2013-04-02 20:22:00,53.0,34.0,-100.00,NW,315,3.0,5.0,49,-99.99,,,-99.99,,2013-04-03 03:22:00,
2013-04-02 20:35:00,52.0,34.0,-100.00,North,0,1.0,4.0,49,-99.99,,,-99.99,,2013-04-03 03:35:00,
2013-04-02 20:43:00,52.0,34.0,-100.00,North,0,1.0,4.0,49,-99.99,,,-99.99,,2013-04-03 03:43:00,
2013-04-02 20:53:00,51.0,34.0,-100.00,North,0,3.0,4.0,52,-99.99,,,-99.99,,2013-04-03 03:53:00,
2013-04-02 21:03:00,51.0,34.0,-100.00,NE,45,2.0,5.0,52,-99.99,,,-99.99,,2013-04-03 04:03:00,
2013-04-02 21:12:00,51.0,34.0,-100.00,NE,45,2.0,5.0,52,-99.99,,,-99.99,,2013-04-03 04:12:00,
2013-04-02 21:23:00,49.0,34.0,-100.00,East,90,1.0,3.0,55,-99.99,,,-99.99,,2013-04-03 04:23:00,
2013-04-02 21:32:00,49.0,34.0,-100.00,NE,45,2.0,3.0,57,-99.99,,,-99.99,,2013-04-03 04:32:00,
2013-04-02 21:42:00,49.0,34.0,-100.00,NE,45,2.0,3.0,57,-99.99,,,-99.99,,2013-04-03 04:42:00,
2013-04-02 21:53:00,48.0,34.0,-100.00,SE,135,2.0,4.0,58,-99.99,,,-99.99,,2013-04-03 04:53:00,
2013-04-02 22:02:00,47.0,34.0,-100.00,East,90,3.0,3.0,60,-99.99,,,-99.99,,2013-04-03 05:02:00,
2013-04-02 22:12:00,47.0,34.0,-100.00,East,90,3.0,3.0,60,-99.99,,,-99.99,,2013-04-03 05:12:00,
2013-04-02 22:22:00,47.0,35.0,-100.00,SE,135,3.0,5.0,63,-99.99,,,-99.99,,2013-04-03 05:22:00,
2013-04-02 22:32:00,47.0,35.0,-100.00,South,180,2.0,3.0,65,-99.99,,,-99.99,,2013-04-03 05:32:00,
2013-04-02 22:42:00,47.0,35.0,-100.00,South,180,2.0,3.0,65,-99.99,,,-99.99,,2013-04-03 05:42:00,
2013-04-02 22:52:00,47.0,36.0,-100.00,South,180,1.0,3.0,65,-99.99,,,-99.99,,2013-04-03 05:52:00,
2013-04-02 23:02:00,46.0,36.0,-100.00,SW,225,0.0,4.0,67,-99.99,,,-99.99,,2013-04-03 06:02:00,
2013-04-02 23:12:00,46.0,36.0,-100.00,SW,225,0.0,4.0,67,-99.99,,,-99.99,,2013-04-03 06:12:00,
2013-04-02 23:22:00,46.0,36.0,-100.00,South,180,3.0,4.0,67,-99.99,,,-99.99,,2013-04-03 06:22:00,
2013-04-02 23:32:00,45.0,36.0,-100.00,SE,135,2.0,4.0,69,-99.99,,,-99.99,,2013-04-03 06:32:00,
2013-04-02 23:42:00,45.0,36.0,-100.00,SE,135,2.0,4.0,69,-99.99,,,-99.99,,2013-04-03 06:42:00,
2013-04-02 23:52:00,45.0,35.0,-100.00,SW,225,3.0,4.0,69,-99.99,,,-99.99,,2013-04-03 06:52:00,